Regional Weather Roundup
Issued by NWS Little Rock, AR

Home | Current Version | Previous Version | Text Only | Print | Product List | Glossary Off
Versions: 1 2 3 4 5 6 7 8 9 10 11 12 13 14 15 16 17 18 19 20 21 22 23 24 25 26 27 28 29 30 31 32 33 34 35 36 37 38 39 40 41 42 43 44 45 46 47 48 49 50

000
ASUS44 KLZK 041405
RWRLZK

WEATHER ROUNDUP FOR ARKANSAS
NATIONAL WEATHER SERVICE LITTLE ROCK AR
900 AM CDT TUE AUG 04 2015

NOTE: "FAIR" INDICATES FEW OR NO CLOUDS BELOW 12,000 FEET WITH NO
SIGNIFICANT WEATHER AND/OR OBSTRUCTIONS TO VISIBILITY.

ARZ001-003-010-029-041500-
NORTHWEST ARKANSAS

CITY           SKY/WX    TMP DP  RH WIND       PRES   REMARKS
FAYETTEVILLE   MOSUNNY   79  70  74 CALM      30.03S
FORT SMITH     SUNNY     80  69  69 NE7       29.99R
HARRISON       SUNNY     77  68  73 MISG      30.05R
BENTONVILLE    MOSUNNY   79  64  61 S5        30.04S
ROGERS         MOSUNNY   80  67  64 SE7       30.04S
SILOAM SPGS    PTSUNNY   81  64  57 SE6       30.01S
HIGHFILL       MOSUNNY   80  67  64 S8        30.03R
$$

ARZ004-005-016-041500-
NORTH CENTRAL ARKANSAS

CITY           SKY/WX    TMP DP  RH WIND       PRES   REMARKS
BATESVILLE     SUNNY     82  72  69 CALM      30.01R HX  87
FLIPPIN        SUNNY     77  70  78 CALM      30.01R
MTN HOME       SUNNY     79  73  82 CALM      30.02S
$$

ARZ040-041-041500-
WEST CENTRAL ARKANSAS

CITY           SKY/WX    TMP DP  RH WIND       PRES   REMARKS
MENA           MOSUNNY   79  66  65 CALM      30.03S
MOUNT IDA      MOSUNNY   82  69  64 CALM      30.00S HX  85
$$

ARZ009-017-025-026-028-041500-
NORTHEAST ARKANSAS

CITY           SKY/WX    TMP DP  RH WIND       PRES   REMARKS
JONESBORO      SUNNY     86  70  58 W6        30.00R HX  90
NEWPORT        SUNNY     85  74  69 CALM      30.01R HX  92
WALNUT RIDGE   SUNNY     81  72  74 W5        30.00R
BLYTHEVILLE      N/A     84  76  76 SW7       30.00R HX  93
$$

ARZ022-023-033-042-044-041500-
CENTRAL ARKANSAS

CITY           SKY/WX    TMP DP  RH WIND       PRES   REMARKS
LITTLE ROCK    MOSUNNY   85  70  60 CALM      30.00S HX  89
N LITTLE ROCK  MOSUNNY   86  71  59 S7        30.00S HX  91
JACKSONVILLE   SUNNY     86  71  60 VRB1      30.00R HX  91
SEARCY         SUNNY     83  72  69 CALM      30.02R HX  88
HOT SPRINGS    SUNNY     83  69  62 S3        30.01S HX  86
RUSSELLVILLE   SUNNY     82  70  66 CALM      30.00S HX  86
CLINTON        FAIR      77  72  83 CALM      30.04R
$$

ARZ036-041500-
EAST ARKANSAS

CITY           SKY/WX    TMP DP  RH WIND       PRES   REMARKS
WEST MEMPHIS   SUNNY     84  75  74 S3        30.00R HX  92
$$

ARZ050-053-066-070-073-041500-
SOUTHWEST ARKANSAS

CITY           SKY/WX    TMP DP  RH WIND       PRES   REMARKS
ARKADELPHIA    FAIR      84  71  65 CALM      30.00S HX  88
CAMDEN         MOSUNNY   84  68  58 CALM      29.99S HX  87
TEXARKANA      PTSUNNY   82  69  64 S6        29.98S HX  85
EL DORADO      MOSUNNY   85  68  56 CALM      29.99S HX  88
DE QUEEN       PTSUNNY   80  71  74 E3        29.97S
$$

ARZ056-057-069-041500-
SOUTHEAST ARKANSAS

CITY           SKY/WX    TMP DP  RH WIND       PRES   REMARKS
PINE BLUFF     SUNNY     83  73  72 CALM      30.00S HX  89
STUTTGART      SUNNY     86  72  62 S6        30.00S HX  92
MONTICELLO       N/A     84  70  62 S3        30.00R HX  88

$$





USA.gov is the U.S. government's official web portal to all federal, state and local government web resources and services.